Zurück zum Katalog

ELECTRON KICK STAGE R/B

AktivSSO
NORAD 60085·ROCKET BODY·🇺🇸 United States

Gestartet Jun 20, 2024 von Rocket Lab Launch Complex 1

Loading…

Nächste Überflüge (nächste 24 Stunden)

TLE

AktuellSource: Space-Track

Epoche: Sep 14, 2026, 02:51 UTC

1 60085U 24114G   26257.11876579  .00007372  00000-0  37676-3 0  9998
2 60085  97.9289 314.8288 0063314 153.7463 206.7001 15.15228444122855

Verfolge ELECTRON KICK STAGE R/B in Echtzeit mit AllMySat

Download on the App Store